EW3614 Weather Reports


Display with metric or nautical units.
time (UTC)temp
F
wind
direction
speed
MPH
gust
MPH
rain 1hr
in
rain 24hr
in
rain mn
in
humidity
%
barometer
mb
20210727074528 56 355 0.0 2.0 0.00 0.06 0.00 39 955.1
20210727073046 56 355 0.0 1.0 0.00 0.06 0.00 39 955.3
20210727071611 56 355 0.0 3.0 0.00 0.06 0.00 39 955.1
20210727070026 56 355 0.0 0.0 0.00 0.06 0.00 40 955.1
20210727064619 56 355 0.0 1.0 0.00 0.06 0.00 40 955.0
20210727063025 56 355 0.0 3.0 0.00 0.06 0.00 40 954.9
20210727061525 56 342 0.0 2.0 0.00 0.06 0.00 41 955.0
20210727060056 57 342 0.0 2.0 0.00 0.06 0.00 41 954.9
20210727054532 58 342 0.0 2.0 0.00 0.06 0.00 42 955.1
20210727053017 58 342 0.0 1.0 0.00 0.06 0.00 43 955.0
20210727051535 59 342 0.0 1.0 0.00 0.06 0.00 44 955.2
20210727050002 59 342 0.0 0.0 0.00 0.06 0.00 44 955.1
20210727044501 59 342 0.0 1.0 0.00 0.06 0.00 43 955.1
20210727043156 59 342 0.0 0.0 0.00 0.06 0.00 42 955.2
20210727041634 59 342 0.0 0.0 0.00 0.06 0.00 42 955.0
20210727040306 59 341 0.0 1.0 0.00 0.06 0.00 41 954.9
20210727034622 59 116 0.0 1.0 0.00 0.06 0.06 38 954.9
20210727033123 59 116 0.0 3.0 0.00 0.06 0.06 38 954.9
20210727031759 60 244 0.0 0.0 0.00 0.06 0.06 38 955.0
20210727030121 60 244 0.0 0.0 0.00 0.06 0.06 40 955.0
20210727024659 61 244 0.0 0.0 0.00 0.07 0.06 42 954.7
20210727023057 62 244 0.0 1.0 0.00 0.07 0.06 45 954.7
20210727021720 63 244 0.0 1.0 0.00 0.07 0.06 50 954.9
20210727020131 64 244 0.0 4.0 0.00 0.07 0.06 60 954.9
20210727014706 64 239 1.0 5.0 0.00 0.07 0.06 58 954.9
20210727013209 63 226 0.0 3.0 0.00 0.07 0.06 38 954.6
20210727011555 64 213 0.0 1.0 0.00 0.07 0.06 38 953.9
20210727010113 64 213 0.0 0.0 0.00 0.07 0.06 39 953.9
20210727004616 64 225 0.0 4.0 0.05 0.11 0.06 38 954.0
20210727003150 65 188 0.0 0.0 0.05 0.11 0.06 39 953.9
20210727001610 66 188 0.0 1.0 0.05 0.11 0.06 46 953.9
20210727000131 67 190 0.0 9.0 0.05 0.11 0.06 58 954.2
20210726234621 69 202 0.0 0.0 0.00 0.07 0.01 61 953.9
20210726233115 70 202 0.0 0.0 0.00 0.07 0.01 66 953.7
20210726231637 72 202 0.0 2.0 0.00 0.07 0.01 64 953.6
20210726230132 73 215 0.0 4.0 0.00 0.07 0.01 62 953.5
20210726224606 75 244 0.0 5.0 0.00 0.07 0.01 60 953.2
20210726223053 75 207 0.0 3.0 0.00 0.07 0.01 62 953.2
20210726221638 75 230 1.0 6.0 0.00 0.07 0.01 59 953.2
20210726220105 76 90 0.0 4.0 0.00 0.07 0.01 59 953.1
20210726214619 75 223 1.0 10.0 0.00 0.07 0.01 60 953.3
20210726213058 76 218 1.0 7.0 0.00 0.07 0.01 60 953.4
20210726211618 75 240 0.0 7.0 0.00 0.07 0.01 59 953.6
20210726210114 75 47 1.0 5.0 0.00 0.07 0.01 60 953.7
20210726204654 76 272 0.0 3.0 0.00 0.07 0.01 61 953.6
20210726203043 75 272 0.0 4.0 0.00 0.07 0.01 63 953.7
20210726201544 75 232 0.0 3.0 0.00 0.07 0.01 62 953.8
20210726200100 74 223 0.0 4.0 0.00 0.07 0.01 63 953.9
20210726194629 76 241 0.0 6.0 0.00 0.07 0.01 59 953.8
20210726193049 76 78 0.0 4.0 0.00 0.07 0.01 62 953.9
20210726191601 75 69 0.0 9.0 0.00 0.07 0.01 60 954.1
20210726190028 75 142 0.0 10.0 0.00 0.07 0.01 62 954.0
20210726184622 75 167 1.0 14.0 0.00 0.07 0.01 63 954.1
20210726183048 74 194 0.0 11.0 0.00 0.07 0.01 62 954.4
20210726181530 74 200 2.0 7.0 0.01 0.07 0.01 63 954.3
20210726180024 74 219 3.0 11.0 0.01 0.07 0.01 64 954.3
20210726174631 74 64 2.0 9.0 0.01 0.07 0.01 63 954.3
20210726173135 73 234 1.0 12.0 0.01 0.07 0.01 64 954.3
20210726171521 73 58 3.0 10.0 0.00 0.06 0.00 64 954.2
20210726170019 73 212 2.0 6.0 0.00 0.06 0.00 65 954.1
20210726164548 72 205 3.0 10.0 0.00 0.06 0.00 66 954.1
20210726163023 71 22 1.0 12.0 0.00 0.06 0.00 66 954.0
20210726161545 71 261 2.0 10.0 0.00 0.06 0.00 66 954.1
20210726160024 71 313 0.0 9.0 0.00 0.06 0.00 66 954.2
20210726154511 70 146 1.0 11.0 0.00 0.06 0.00 65 954.2
20210726153014 70 225 1.0 9.0 0.00 0.06 0.00 65 954.2
20210726151506 70 94 0.0 6.0 0.00 0.06 0.00 65 954.3
20210726150001 69 120 1.0 8.0 0.00 0.06 0.00 63 954.1
20210726144620 68 224 2.0 7.0 0.00 0.06 0.00 63 954.1
20210726143122 68 261 6.0 13.0 0.00 0.06 0.00 63 954.0
20210726141711 68 261 3.0 8.0 0.00 0.06 0.00 62 953.9
20210726140215 67 227 2.0 8.0 0.00 0.06 0.00 59 953.9
20210726134620 67 193 2.0 7.0 0.00 0.07 0.00 56 954.0
20210726133240 66 236 0.0 12.0 0.00 0.07 0.00 49 953.9
20210726131640 65 209 0.0 6.0 0.00 0.07 0.00 34 953.9
20210726130107 64 318 0.0 5.0 0.00 0.07 0.00 27 953.8
20210726124549 63 203 2.0 6.0 0.00 0.12 0.00 28 953.8
20210726123037 62 135 0.0 3.0 0.00 0.12 0.00 29 953.7
20210726121630 61 67 0.0 3.0 0.00 0.12 0.00 30 953.6
20210726120144 61 62 0.0 0.0 0.00 0.12 0.00 30 953.4
20210726114529 60 62 0.0 2.0 0.00 0.39 0.00 31 953.3
20210726113056 59 62 0.0 1.0 0.00 0.39 0.00 31 953.2
20210726111557 59 62 0.0 3.0 0.00 0.39 0.00 32 953.1
20210726110026 58 61 0.0 1.0 0.00 0.39 0.00 33 953.2
20210726104531 55 61 0.0 1.0 0.00 0.48 0.00 35 953.1
20210726103019 55 61 0.0 0.0 0.00 0.48 0.00 36 953.0
20210726101552 54 61 0.0 0.0 0.00 0.48 0.00 36 953.0
20210726100038 54 61 0.0 0.0 0.00 0.48 0.00 36 953.0
20210726094522 54 61 0.0 0.0 0.00 0.60 0.00 36 953.0
20210726093030 55 61 0.0 0.0 0.00 0.60 0.00 35 953.0
20210726091516 55 61 0.0 0.0 0.00 0.60 0.00 35 953.0
20210726090014 55 61 0.0 0.0 0.00 0.60 0.00 35 953.2
20210726084533 55 61 0.0 0.0 0.00 0.66 0.00 35 953.2
20210726083048 56 61 0.0 0.0 0.00 0.66 0.00 35 953.2
20210726081531 56 61 0.0 0.0 0.00 0.66 0.00 35 953.1
20210726080011 55 61 0.0 0.0 0.00 0.66 0.00 35 953.0